HARMALA Weather Reports


time (UTC)temp
C
wind
direction
speed
KPH
gust
KPH
rain 1hr
cm
rain 24hr
cm
rain mn
cm
humidity
%
barometer
mb
20260508104731 12 0.0 0.0 0.00 0.00 0.00 27 1026.6
20260508102731 13 0.0 0.0 0.00 0.00 0.00 30 1026.6
20260508100731 12 0.0 0.0 0.00 0.00 0.00 31 1026.6
20260508094731 11 0.0 0.0 0.00 0.00 0.00 29 1026.5
20260508092731 12 0.0 0.0 0.00 0.00 0.00 33 1026.5
20260508090731 11 0.0 0.0 0.00 0.00 0.00 31 1026.5
20260508084731 11 0.0 0.0 0.00 0.00 0.00 33 1026.6
20260508082730 11 0.0 0.0 0.00 0.00 0.00 35 1026.6
20260508080731 11 0.0 0.0 0.00 0.00 0.00 37 1026.5
20260508074731 10 0.0 0.0 0.00 0.00 0.00 42 1026.4
20260508072730 9 0.0 0.0 0.00 0.00 0.00 43 1026.3
20260508070731 9 0.0 0.0 0.00 0.00 0.00 44 1026.0
20260508064730 8 0.0 0.0 0.00 0.00 0.00 44 1025.9
20260508062730 9 0.0 0.0 0.00 0.00 0.00 44 1025.7
20260508060731 8 0.0 0.0 0.00 0.00 0.00 44 1025.6
20260508054730 7 0.0 0.0 0.00 0.00 0.00 46 1025.4
20260508052731 7 0.0 0.0 0.00 0.00 0.00 51 1025.2
20260508050730 6 0.0 0.0 0.00 0.00 0.00 56 1025.1
20260508044731 5 0.0 0.0 0.00 0.00 0.00 57 1024.9
20260508042730 5 0.0 0.0 0.00 0.00 0.00 60 1024.7
20260508040730 3 0.0 0.0 0.00 0.00 0.00 69 1024.6
20260508034730 1 0.0 0.0 0.00 0.00 0.00 78 1024.5
20260508033055 0 0.0 0.0 0.00 0.00 0.00 80 1024.4
20260508030731 -1 0.0 0.0 0.00 0.00 0.00 84 1024.3
20260508024729 -1 0.0 0.0 0.00 0.00 0.00 84 1024.1
20260508022729 -1 0.0 0.0 0.00 0.00 0.00 82 1023.8
20260508020730 -1 0.0 0.0 0.00 0.00 0.00 83 1023.6
20260508014730 -1 0.0 0.0 0.00 0.00 0.00 82 1023.5
20260508012730 -1 0.0 0.0 0.00 0.00 0.00 80 1023.3
20260508010730 0 0.0 0.0 0.00 0.00 0.00 78 1023.0
20260508004729 0 0.0 0.0 0.00 0.00 0.00 75 1022.8
20260508002730 0 0.0 0.0 0.00 0.00 0.00 74 1022.6
20260508000730 0 0.0 0.0 0.00 0.00 0.00 73 1022.4
20260507234730 1 0.0 0.0 0.00 0.00 0.00 70 1022.2
20260507232729 1 0.0 0.0 0.00 0.00 0.00 67 1022.0
20260507230729 2 0.0 0.0 0.00 0.00 0.00 64 1021.8
20260507224728 3 0.0 0.0 0.00 0.00 0.00 59 1021.5
20260507222729 3 0.0 0.0 0.00 0.00 0.00 57 1021.2
20260507220729 3 0.0 0.0 0.00 0.00 0.00 56 1021.2
20260507214729 4 0.0 0.0 0.00 0.00 0.00 53 1020.8
20260507212728 5 0.0 0.0 0.00 0.00 0.00 49 1020.4
20260507210728 5 0.0 0.0 0.00 0.00 0.00 48 1020.1
20260507204729 5 0.0 0.0 0.00 0.00 0.00 49 1019.8
20260507202729 5 0.0 0.0 0.00 0.00 0.00 48 1019.5
20260507200730 6 0.0 0.0 0.00 0.00 0.00 42 1019.1
20260507194728 6 0.0 0.0 0.00 0.00 0.00 40 1018.8
20260507192728 7 0.0 0.0 0.00 0.00 0.00 40 1018.5
20260507190728 7 0.0 0.0 0.00 0.00 0.00 43 1018.3
20260507184728 8 0.0 0.0 0.00 0.00 0.00 41 1018.0
20260507180727 8 0.0 0.0 0.00 0.00 0.00 37 1017.6
20260507174728 9 0.0 0.0 0.00 0.00 0.00 37 1017.4
20260507172727 10 0.0 0.0 0.00 0.00 0.00 31 1017.2
20260507170727 10 0.0 0.0 0.00 0.00 0.00 31 1017.0
20260507164728 11 0.0 0.0 0.00 0.00 0.00 31 1016.9
20260507162728 11 0.0 0.0 0.00 0.00 0.00 29 1016.7
20260507160728 11 0.0 0.0 0.00 0.00 0.00 29 1016.6
20260507154727 11 0.0 0.0 0.00 0.00 0.00 29 1016.4
20260507152727 11 0.0 0.0 0.00 0.00 0.00 27 1016.4
20260507150729 11 0.0 0.0 0.00 0.00 0.00 28 1016.3
20260507144728 12 0.0 0.0 0.00 0.00 0.00 25 1016.2
20260507142728 12 0.0 0.0 0.00 0.00 0.00 28 1016.0
20260507134728 13 0.0 0.0 0.00 0.00 0.00 22 1015.7
20260507132727 13 0.0 0.0 0.00 0.00 0.00 21 1015.7
20260507130727 13 0.0 0.0 0.00 0.00 0.00 21 1015.6
20260507124727 12 0.0 0.0 0.00 0.00 0.00 19 1015.7
20260507122726 12 0.0 0.0 0.00 0.00 0.00 19 1015.8
20260507120727 12 0.0 0.0 0.00 0.00 0.00 19 1015.6
20260507114727 12 0.0 0.0 0.00 0.00 0.00 18 1015.8
20260507112726 12 0.0 0.0 0.00 0.00 0.00 20 1015.8
20260507110726 12 0.0 0.0 0.00 0.00 0.00 19 1015.9